Location: Düngen
(52.0952°N, 10.0219°E)
Time: 19:23:32
(UTC+00:00)

Cosmos 2297 Rocket - Pass Details

Date: 11 March 2026
Orbit: 840 x 841 km, 71.0° (Epoch: 20 April)

Event Time Altitude Azimuth Distance (km) Brightness Sun altitude
Rises 18:15:29 0° 322° (NW) 3,407 6.1 -9.7°
Reaches altitude 10° 18:19:25 10° 349° (NNW) 2,471 4.9 -10.3°
Maximum altitude 18:22:07 13° 17° (NNE) 2,233 4.3 -10.8°
Drops below altitude 10° 18:24:48 10° 46° (NE) 2,468 4.3 -11.2°
Enters shadow 18:26:18 - 58° (ENE) 2,765 4.4 -11.4°
